TimeCDT,TemperatureF,Dew PointF,Humidity,Sea Level PressureIn,VisibilityMPH,Wind Direction,Wind SpeedMPH,Gust SpeedMPH,PrecipitationIn,Events,Conditions,WindDirDegrees,DateUTC
12:52 AM,54.0,36.0,51,29.89,10.0,SW,13.8,-,N/A,,Clear,220,2012-10-09 05:52:00
1:52 AM,54.0,36.0,51,29.89,10.0,SSW,11.5,20.7,N/A,,Clear,210,2012-10-09 06:52:00
2:52 AM,51.8,35.6,54,29.89,10.0,SSW,9.2,-,N/A,,Clear,210,2012-10-09 07:52:00
3:52 AM,50.0,37.0,61,29.87,10.0,SSW,8.1,-,N/A,,Clear,210,2012-10-09 08:52:00
4:52 AM,50.0,37.0,61,29.86,10.0,SW,6.9,-,N/A,,Clear,220,2012-10-09 09:52:00
5:52 AM,48.2,37.4,66,29.87,10.0,SSW,6.9,-,N/A,,Clear,210,2012-10-09 10:52:00
6:52 AM,45.0,36.0,71,29.86,10.0,Calm,Calm,-,N/A,,Clear,0,2012-10-09 11:52:00
7:52 AM,48.0,37.0,66,29.86,10.0,SW,4.6,-,N/A,,Clear,230,2012-10-09 12:52:00
8:52 AM,51.8,39.2,62,29.89,10.0,SW,5.8,-,N/A,,Clear,220,2012-10-09 13:52:00
9:52 AM,55.0,39.9,57,29.91,10.0,WSW,10.4,-,N/A,,Clear,240,2012-10-09 14:52:00
10:52 AM,60.1,42.1,51,29.91,10.0,SW,12.7,-,N/A,,Clear,220,2012-10-09 15:52:00
11:52 AM,63.0,42.1,46,29.92,10.0,West,9.2,-,N/A,,Clear,280,2012-10-09 16:52:00
12:52 PM,63.0,39.9,43,29.92,10.0,NNE,9.2,17.3,N/A,,Clear,20,2012-10-09 17:52:00
1:52 PM,63.0,39.9,43,29.93,10.0,NNE,12.7,21.9,N/A,,Clear,20,2012-10-09 18:52:00
2:52 PM,62.1,42.1,48,29.96,10.0,NNE,16.1,28.8,N/A,,Overcast,20,2012-10-09 19:52:00
3:52 PM,60.1,42.1,51,29.99,10.0,NNE,13.8,21.9,N/A,,Overcast,20,2012-10-09 20:52:00
4:52 PM,60.1,39.0,46,30.00,10.0,NNE,13.8,21.9,N/A,,Overcast,30,2012-10-09 21:52:00
5:52 PM,61.0,37.0,41,30.02,10.0,North,8.1,-,N/A,,Partly Cloudy,360,2012-10-09 22:52:00
6:52 PM,57.9,28.0,32,30.04,10.0,North,5.8,-,N/A,,Clear,360,2012-10-09 23:52:00
7:52 PM,53.1,25.0,34,30.09,10.0,NNW,3.5,-,N/A,,Clear,330,2012-10-10 00:52:00
8:52 PM,45.0,27.0,49,30.12,10.0,Calm,Calm,-,N/A,,Clear,0,2012-10-10 01:52:00
9:52 PM,41.0,28.0,60,30.14,10.0,Calm,Calm,-,N/A,,Clear,0,2012-10-10 02:52:00
10:52 PM,37.0,28.0,70,30.16,10.0,Calm,Calm,-,N/A,,Clear,0,2012-10-10 03:52:00
11:52 PM,34.0,27.0,75,30.17,10.0,SW,4.6,-,N/A,,Clear,220,2012-10-10 04:52:00